Powrót do katalogu

OPS 7323

DMSP 5B F3

AktywnyPogodaSSO
NORAD 6275·PAYLOAD·🇺🇸 United States

Wystrzelony Nov 9, 1972 z Vandenberg Space Force Base

Loading…

Następne Przeloty (najbliższe 24 godziny)

TLE

ŚwieżeSource: Space-Track

Epoka: Sep 14, 2026, 10:47 UTC

1 06275U 72089A   26257.44932066  .00000179  00000-0  85528-4 0  9991
2 06275  98.5421  62.4113 0035647  59.2902 301.1785 14.30003293797430

Śledź OPS 7323 w czasie rzeczywistym z AllMySat

Download on the App Store